SCP
0 0 0 0 0 0 0 0 -0 -0 0 -0 -0 0 0 0 0 0 0 0 0 0 0 0 0 0 0 0 0 0 0 0 0 0 0 0 0 0 0 0 0 0 0
0 0 0 0 0 0 0 0 0 -0 -0 -0 -0 -0 -0 -0 0 0 0 0 0 0 0 0 0 0 0 0 0 0 0 0 0 0 0 0 0 0 0 0 0 0 0
0 0 0 0 0 0 0 0 0 0 0 -0 0 -0 -0 -0 -0 -0 -0 0 0 0 0 0 0 0 0 0 0 0 0 0 0 0 0 0 0 0 0 0 0 0 0
0 0 0 0 0 0 0 0 0 0 0 -0 -0 -0 -0 -0 0 0 0 0 0 0 0 0 0 0 0 0 0 0 0 0 0 0 0 0 0 0 0 0 0 0 0
0 0 0 0 0 0 0 0 0 -0 -0 -0 -0 -0 -0 -0 0 0 0 0 0 0 0 0 0 0 0 0 0 0 0 0 0 0 0 0 0 0 0 0 0 0 0
0 0 0 0 0 0 0 0 -0 -0 -0 -0 -0 -0 -0 -0 -0 -0 -0 0 0 0 0 0 0 0 0 0 0 0 0 0 0 0 0 0 0 0 0 0 0 0 0
0 0 0 0 0 0 -0 -0 -0 -0 -0 -0 -0 0 0 0 0 0 0 0 0 0 0 0 0 0 0 0 0 0 0 0 0 0 0 0 0 0 0 0 0 0 0
1 0 0 0 0 -0 -0 -0 -0 0 0 0 0 0 0 0 0 0 0 0 0 0 0 0 0 0 0 0 0 0 0 0 0 0 0 0 0 0 0 0 0 0 0
0 0 0 0 0 0 0 0 0 0 0 0 0 0 0 0 0 0 0 0 0 0 0 0 0 0 0 0 0 0 0 0 0 0 0 0 0 0 0 0 0 0 0
0 0 0 0 -0 0 0 0 0 0 0 0 0 0 0 0 0 0 0 0 0 0 0 0 0 0 0 0 0 0 0 0 0 0 0 0 0 0 0 0 0 0 0
0 0 0 -0 0 0 0 0 0 0 0 0 0 0 0 0 0 0 0 0 0 0 0 0 0 0 0 0 0 0 0 0 0 0 0 0 0 0 0 0 0 0 0
0 0 0 0 0 0 0 0 0 0 0 0 0 0 0 0 0 0 0 0 0 0 0 0 0 0 0 0 0 0 0 0 0 0 0 0 0 0 0 0 0 0 0
0 0 0 0 0 0 0 0 0 0 0 0 0 0 0 0 0 0 0 0 0 0 0 0 0 0 0 0 0 0 0 0 0 0 0 0 0 0 0 0 0 0 0
0 0 0 0 0 0 0 0 0 0 0 0 0 0 0 0 0 0 0 0 0 0 0 0 0 0 0 0 0 0 0 0 0 0 0 0 0 0 0 0 0 0 0
0 0 0 0 0 0 0 0 0 0 0 0 0 0 0 0 0 0 0 0 0 0 0 0 0 0 0 0 0 0 0 0 0 0 0 0 0 0 0 0 0 0 0
0 0 0 0 0 0 0 0 0 0 0 0 0 0 0 0 0 0 0 0 0 0 0 0 0 0 0 0 0 0 0 0 0 0 0 0 0 0 0 0 0 0 0
0 0 0 0 0 0 0 0 0 0 0 0 0 0 0 0 0 0 0 0 0 0 0 0 0 0 0 0 0 0 0 0 0 0 0 0 0 0 0 0 0 0 0
0 0 -0 -0 -0 -0 -0 -0 -0 -0 -0 0 0 0 0 0 0 0 0 0 0 0 0 0 0 0 0 0 0 0 0 0 0 0 0 0 0 0 0 0 0 0 0
-0 -0 -0 -0 -0 -0 -0 -0 -0 -0 -0 -0 -0 -0 -0 -0 0 0 0 0 0 0 0 0 0 0 0 0 0 0 0 0 0 0 0 0 0 0 0 0 0 0 0
-0 -0 0 -0 -0 -0 -0 -0 0 0 0 -0 -0 -0 -0 -0 -0 -0 0 0 0 0 0 0 0 0 0 0 0 0 0 0 0 0 0 0 0 0 0 0 0 0 0
0 0 -0 -0 0 0 0 0 0 0 0 -0 0 0 0 0 0 0 0 0 0 0 0 0 0 0 0 0 0 0 0 0 0 0 0 0 0 0 0 0 0 0 0
0 0 0 0 0 0 0 0 0 0 0 0 0 -0 0 0 0 0 0 0 0 0 0 0 0 0 0 0 0 0 0 0 0 0 0 0 0 0 0 0 0 0 0
0 0 0 0 0 0 0 0 0 0 0 0 0 0 0 0 0 0 0 0 0 0 0 0 0 0 0 0 0 0 0 0 0 0 0 0 0 0 0 0 0 0 0
0 0 0 0 0 0 0 0 0 0 0 0 0 0 0 0 0 0 0 0 0 0 0 0 0 0 0 0 0 0 0 0 0 0 0 0 0 0 0 0 0 0 0
0 0 0 0 0 0 0 0 0 0 0 0 0 0 0 0 0 0 0 0 0 0 0 0 0 0 0 0 0 0 0 0 0 0 0 0 0 0 0 0 -0 0 0
0 0 0 0 0 0 0 0 0 0 0 0 0 0 0 0 0 0 0 0 0 0 0 0 0 0 0 0 0 0 0 0 0 0 0 0 0 0 0 0 0 0 -0
Wind_Speed_500mb
3 5 16 15 13 16 16 22 24 20 19 16 11 8 4 15 22 25 24 27 27 26 27 33 33 35 29 28 18 38 18 12 13 16 16 23 26 26 13 13 20 26 25
7 4 12 15 15 21 12 21 19 19 19 20 13 13 13 17 25 25 25 26 27 26 28 33 36 44 36 19 9 11 14 16 15 15 23 24 24 18 14 21 27 28 24
8 6 4 7 15 16 14 14 17 13 14 13 17 14 14 15 17 16 17 28 33 36 34 32 33 33 29 18 18 13 13 5 9 11 17 17 14 20 26 27 23 29 26
6 2 4 2 5 7 10 8 13 15 16 17 19 19 19 16 13 15 21 34 39 37 35 31 25 18 16 24 22 16 14 14 9 4 15 16 13 26 32 26 27 23 26
10 3 7 1 8 1 6 11 11 14 19 22 21 22 21 18 16 11 8 8 15 21 24 24 24 21 15 16 22 25 18 8 1 7 12 19 26 18 18 18 20 24 22
11 10 11 5 14 6 16 19 19 18 18 14 12 9 11 10 11 8 6 5 5 6 11 14 15 18 18 15 15 19 17 13 11 15 15 20 26 31 31 24 18 26 21
19 16 16 18 17 14 23 24 19 20 19 16 14 12 9 11 12 8 9 9 11 13 11 13 15 17 19 17 13 22 22 21 23 21 22 29 30 26 21 24 24 26 26
20 20 27 22 33 29 26 23 22 19 17 17 15 9 10 13 14 12 12 4 7 9 8 5 8 8 9 7 4 7 6 5 7 9 11 16 13 12 14 16 23 21 22
23 24 35 38 43 38 32 29 26 17 12 10 10 11 15 15 12 11 6 3 3 8 7 8 8 7 6 5 5 7 11 12 12 11 8 6 4 5 9 11 11 13 17
25 30 43 46 46 39 33 33 28 17 7 2 9 15 21 24 23 17 11 6 9 12 16 19 18 14 10 8 7 10 10 15 10 6 1 5 8 12 13 16 14 13 16
13 26 44 52 48 40 37 32 21 13 3 3 11 18 25 29 29 21 17 13 17 22 22 22 18 15 11 9 5 3 5 4 4 5 6 1 9 17 18 18 16 15 20
27 41 48 44 36 43 34 24 15 8 6 12 15 18 21 25 26 28 16 8 13 18 20 17 12 7 4 6 10 3 4 2 7 10 8 5 9 16 23 25 21 19 10
34 42 40 45 48 44 34 22 20 15 13 19 18 19 19 19 18 19 13 8 16 15 12 7 6 10 8 5 6 9 7 5 6 4 6 5 8 13 15 15 10 14 5
29 34 38 44 42 38 34 34 30 28 27 27 28 29 27 28 25 23 19 18 16 16 20 28 31 28 26 29 27 22 14 12 4 5 8 6 7 12 14 15 11 7 5
40 40 41 42 41 41 42 39 33 35 27 25 25 23 21 23 24 24 26 30 30 30 28 28 24 21 23 22 21 19 20 21 10 14 12 7 7 11 13 16 3 7 9
45 44 44 42 41 40 40 47 45 39 33 29 27 22 24 22 23 28 34 34 32 29 24 20 14 5 5 8 10 11 15 19 12 5 8 12 12 11 13 7 10 9 9
52 51 50 47 47 46 46 47 50 43 34 30 27 26 27 31 35 37 36 31 22 16 16 23 22 19 13 5 1 6 10 11 4 3 9 11 14 13 11 12 12 14 14
48 47 47 50 46 43 42 40 38 40 41 42 35 31 32 36 37 36 32 29 24 10 7 4 3 5 1 5 10 13 14 4 12 7 7 9 13 15 10 12 13 19 21
41 33 25 27 33 28 27 26 28 22 27 32 35 38 34 31 29 28 24 21 16 7 8 9 7 8 8 14 12 7 8 8 11 7 10 15 14 13 9 16 12 15 13
36 24 26 29 22 18 20 18 9 7 19 20 20 23 19 20 20 20 16 11 8 6 7 9 10 10 10 8 12 6 8 7 4 4 15 15 13 10 14 14 13 10 13
22 18 22 18 22 16 11 9 8 12 14 10 4 2 12 15 24 18 5 3 8 9 9 9 7 5 4 11 20 4 4 8 12 16 24 19 9 6 13 15 17 6 12
10 14 25 26 15 6 9 12 7 11 7 2 7 19 25 15 15 6 4 5 3 3 7 8 8 1 11 10 10 11 2 13 16 18 21 22 13 6 11 14 7 10 12
3 8 25 22 17 7 3 5 12 18 12 3 9 18 18 11 6 6 5 6 4 5 4 10 3 6 5 7 12 9 17 22 28 28 27 30 9 8 7 7 8 14 9
6 13 14 19 16 15 14 7 16 11 17 11 12 13 13 7 7 9 11 12 6 4 5 6 11 16 20 24 22 15 17 21 27 32 33 22 5 14 2 6 11 17 11
6 5 11 11 16 15 12 11 17 20 22 19 14 14 13 13 13 14 10 8 4 4 18 12 13 18 18 20 18 14 18 21 20 17 14 11 2 12 4 12 18 6 2
7 15 10 3 8 21 22 15 20 27 13 8 19 18 15 14 12 17 20 15 14 10 17 15 17 13 12 12 26 27 19 14 11 14 14 4 7 6 10 19 10 4 10
Wind_Direction_500mb
207 11 18 18 44 26 41 41 46 46 42 54 91 85 151 178 188 200 202 200 201 214 208 196 203 195 204 234 249 235 223 236 244 231 235 218 216 222 237 223 211 226 221
151 55 17 345 336 5 20 30 36 41 41 62 98 100 113 145 153 160 172 183 192 182 184 184 188 198 199 226 200 217 232 245 249 252 207 227 234 214 198 220 224 214 221
134 74 330 328 349 4 27 47 34 43 37 57 84 105 132 138 148 172 180 177 176 182 185 186 195 203 207 199 173 166 197 240 284 246 226 223 197 235 232 233 227 213 212
204 266 148 329 339 344 11 44 44 51 70 98 95 92 95 110 129 146 173 169 170 176 185 181 171 164 170 203 210 189 167 161 85 276 234 208 229 241 230 227 222 210 218
234 278 160 78 93 66 55 74 95 72 96 102 98 100 97 106 110 115 125 164 196 213 216 220 221 214 232 212 213 219 235 246 262 271 256 249 233 228 218 199 205 222 221
250 250 218 162 136 134 93 102 112 104 121 134 127 111 96 105 109 114 111 133 174 209 203 194 194 204 208 205 210 226 230 223 251 252 236 232 215 213 230 195 206 203 202
236 227 225 166 134 123 140 135 128 124 132 129 126 122 131 132 120 105 109 137 145 139 159 187 200 209 215 224 250 279 279 284 276 240 216 204 195 194 197 200 200 217 227
181 199 194 168 151 166 164 157 149 136 129 138 146 159 152 151 137 136 136 110 158 162 145 130 86 93 100 90 140 191 197 173 109 111 149 164 199 213 217 217 217 221 236
200 199 185 175 178 181 179 171 167 173 156 133 147 157 156 154 155 176 166 114 89 144 129 139 141 169 193 175 171 169 149 138 111 105 103 117 154 204 214 219 221 210 216
207 190 188 188 192 191 189 182 180 190 196 127 170 169 159 162 168 176 192 218 217 188 166 164 159 168 174 151 146 131 125 113 101 97 60 288 264 251 253 263 257 252 244
192 192 191 191 193 200 186 174 181 193 187 168 164 165 168 170 167 184 198 187 176 159 158 156 158 169 186 174 167 251 256 195 120 100 78 81 295 295 314 318 311 317 287
176 176 177 181 187 176 175 168 165 187 199 163 155 158 165 165 157 168 167 151 154 164 146 140 142 156 182 240 271 285 108 6 312 306 301 274 336 326 327 336 312 294 286
152 147 155 162 163 154 151 161 163 134 132 131 126 126 132 131 162 190 212 172 152 157 163 161 102 70 61 39 349 347 355 18 34 56 86 57 13 336 334 321 318 306 237
139 133 128 129 131 129 127 121 117 115 120 118 118 118 114 112 112 114 116 117 114 101 92 80 76 70 64 54 49 47 51 57 28 314 317 349 348 333 335 352 334 306 299
116 114 115 115 117 118 117 112 113 111 107 109 113 115 114 116 114 112 109 107 99 89 83 79 72 74 69 63 50 43 32 21 47 54 52 40 355 337 334 346 337 341 319
113 112 110 109 108 108 111 109 101 94 94 95 99 101 109 113 113 113 108 100 94 97 102 114 120 102 77 87 69 49 35 26 65 41 359 341 350 346 346 10 13 341 310
105 104 99 96 96 97 97 94 88 85 83 87 92 98 106 110 110 112 113 107 103 90 81 83 81 73 81 99 292 280 310 322 327 345 330 348 342 339 341 359 357 333 319
101 98 97 92 91 90 88 80 71 74 81 82 91 101 109 113 114 112 111 117 121 98 53 72 117 180 255 279 281 296 317 298 324 294 1 341 329 337 351 355 350 350 351
98 92 90 94 91 90 93 82 69 71 87 89 90 95 103 112 118 114 109 114 115 98 47 23 17 350 306 312 314 351 40 19 34 34 1 337 344 339 336 345 334 351 1
115 109 118 112 108 102 105 89 66 93 119 109 105 115 124 125 123 125 123 130 160 140 132 71 357 355 17 25 20 98 65 356 177 268 308 321 336 333 343 333 319 324 340
151 128 124 123 141 149 175 183 160 97 136 93 27 166 137 121 137 132 142 202 235 239 239 205 52 33 20 345 343 247 86 328 266 289 314 315 300 315 331 317 310 314 340
159 148 145 162 194 224 219 206 194 189 192 167 64 140 137 125 156 189 202 242 283 256 309 177 177 328 344 338 20 8 320 315 285 300 317 343 324 282 339 316 310 349 333
153 177 184 207 227 252 231 189 158 156 203 158 127 123 158 167 255 216 185 222 250 270 346 84 63 205 259 282 293 303 288 288 295 301 308 320 308 236 317 312 339 338 331
181 287 229 237 212 197 210 208 145 153 168 180 188 157 162 202 232 237 249 251 264 210 156 214 272 277 292 290 277 278 296 295 298 299 306 318 278 253 171 333 322 309 312
355 85 227 226 231 205 227 218 197 189 195 200 204 227 232 244 244 261 245 268 169 206 202 264 272 304 342 54 21 332 306 303 308 316 323 327 174 160 29 318 299 293 62
248 327 247 218 291 245 241 219 221 198 205 228 214 231 237 249 272 249 238 269 196 246 239 266 299 339 2 8 9 10 1 353 0 11 354 338 182 132 53 7 4 73 20
Wind_Speed_850mb
3 5 16 15 13 16 16 22 24 20 19 16 11 8 4 15 22 25 24 27 27 26 27 33 33 35 29 28 18 38 18 12 13 16 16 23 26 26 13 13 20 26 25
7 4 12 15 15 21 12 21 19 19 19 20 13 13 13 17 25 25 25 26 27 26 28 33 36 44 36 19 9 11 14 16 15 15 23 24 24 18 14 21 27 28 24
8 6 4 7 15 16 14 14 17 13 14 13 17 14 14 15 17 16 17 28 33 36 34 32 33 33 29 18 18 13 13 5 9 11 17 17 14 20 26 27 23 29 26
6 2 4 2 5 7 10 8 13 15 16 17 19 19 19 16 13 15 21 34 39 37 35 31 25 18 16 24 22 16 14 14 9 4 15 16 13 26 32 26 27 23 26
10 3 7 1 8 1 6 11 11 14 19 22 21 22 21 18 16 11 8 8 15 21 24 24 24 21 15 16 22 25 18 8 1 7 12 19 26 18 18 18 20 24 22
11 10 11 5 14 6 16 19 19 18 18 14 12 9 11 10 11 8 6 5 5 6 11 14 15 18 18 15 15 19 17 13 11 15 15 20 26 31 31 24 18 26 21
19 16 16 18 17 14 23 24 19 20 19 16 14 12 9 11 12 8 9 9 11 13 11 13 15 17 19 17 13 22 22 21 23 21 22 29 30 26 21 24 24 26 26
20 20 27 22 33 29 26 23 22 19 17 17 15 9 10 13 14 12 12 4 7 9 8 5 8 8 9 7 4 7 6 5 7 9 11 16 13 12 14 16 23 21 22
23 24 35 38 43 38 32 29 26 17 12 10 10 11 15 15 12 11 6 3 3 8 7 8 8 7 6 5 5 7 11 12 12 11 8 6 4 5 9 11 11 13 17
25 30 43 46 46 39 33 33 28 17 7 2 9 15 21 24 23 17 11 6 9 12 16 19 18 14 10 8 7 10 10 15 10 6 1 5 8 12 13 16 14 13 16
13 26 44 52 48 40 37 32 21 13 3 3 11 18 25 29 29 21 17 13 17 22 22 22 18 15 11 9 5 3 5 4 4 5 6 1 9 17 18 18 16 15 20
27 41 48 44 36 43 34 24 15 8 6 12 15 18 21 25 26 28 16 8 13 18 20 17 12 7 4 6 10 3 4 2 7 10 8 5 9 16 23 25 21 19 10
34 42 40 45 48 44 34 22 20 15 13 19 18 19 19 19 18 19 13 8 16 15 12 7 6 10 8 5 6 9 7 5 6 4 6 5 8 13 15 15 10 14 5
29 34 38 44 42 38 34 34 30 28 27 27 28 29 27 28 25 23 19 18 16 16 20 28 31 28 26 29 27 22 14 12 4 5 8 6 7 12 14 15 11 7 5
40 40 41 42 41 41 42 39 33 35 27 25 25 23 21 23 24 24 26 30 30 30 28 28 24 21 23 22 21 19 20 21 10 14 12 7 7 11 13 16 3 7 9
45 44 44 42 41 40 40 47 45 39 33 29 27 22 24 22 23 28 34 34 32 29 24 20 14 5 5 8 10 11 15 19 12 5 8 12 12 11 13 7 10 9 9
52 51 50 47 47 46 46 47 50 43 34 30 27 26 27 31 35 37 36 31 22 16 16 23 22 19 13 5 1 6 10 11 4 3 9 11 14 13 11 12 12 14 14
48 47 47 50 46 43 42 40 38 40 41 42 35 31 32 36 37 36 32 29 24 10 7 4 3 5 1 5 10 13 14 4 12 7 7 9 13 15 10 12 13 19 21
41 33 25 27 33 28 27 26 28 22 27 32 35 38 34 31 29 28 24 21 16 7 8 9 7 8 8 14 12 7 8 8 11 7 10 15 14 13 9 16 12 15 13
36 24 26 29 22 18 20 18 9 7 19 20 20 23 19 20 20 20 16 11 8 6 7 9 10 10 10 8 12 6 8 7 4 4 15 15 13 10 14 14 13 10 13
22 18 22 18 22 16 11 9 8 12 14 10 4 2 12 15 24 18 5 3 8 9 9 9 7 5 4 11 20 4 4 8 12 16 24 19 9 6 13 15 17 6 12
10 14 25 26 15 6 9 12 7 11 7 2 7 19 25 15 15 6 4 5 3 3 7 8 8 1 11 10 10 11 2 13 16 18 21 22 13 6 11 14 7 10 12
3 8 25 22 17 7 3 5 12 18 12 3 9 18 18 11 6 6 5 6 4 5 4 10 3 6 5 7 12 9 17 22 28 28 27 30 9 8 7 7 8 14 9
6 13 14 19 16 15 14 7 16 11 17 11 12 13 13 7 7 9 11 12 6 4 5 6 11 16 20 24 22 15 17 21 27 32 33 22 5 14 2 6 11 17 11
6 5 11 11 16 15 12 11 17 20 22 19 14 14 13 13 13 14 10 8 4 4 18 12 13 18 18 20 18 14 18 21 20 17 14 11 2 12 4 12 18 6 2
7 15 10 3 8 21 22 15 20 27 13 8 19 18 15 14 12 17 20 15 14 10 17 15 17 13 12 12 26 27 19 14 11 14 14 4 7 6 10 19 10 4 10
Wind_Direction_850mb
207 11 18 18 44 26 41 41 46 46 42 54 91 85 151 178 188 200 202 200 201 214 208 196 203 195 204 234 249 235 223 236 244 231 235 218 216 222 237 223 211 226 221
151 55 17 345 336 5 20 30 36 41 41 62 98 100 113 145 153 160 172 183 192 182 184 184 188 198 199 226 200 217 232 245 249 252 207 227 234 214 198 220 224 214 221
134 74 330 328 349 4 27 47 34 43 37 57 84 105 132 138 148 172 180 177 176 182 185 186 195 203 207 199 173 166 197 240 284 246 226 223 197 235 232 233 227 213 212
204 266 148 329 339 344 11 44 44 51 70 98 95 92 95 110 129 146 173 169 170 176 185 181 171 164 170 203 210 189 167 161 85 276 234 208 229 241 230 227 222 210 218
234 278 160 78 93 66 55 74 95 72 96 102 98 100 97 106 110 115 125 164 196 213 216 220 221 214 232 212 213 219 235 246 262 271 256 249 233 228 218 199 205 222 221
250 250 218 162 136 134 93 102 112 104 121 134 127 111 96 105 109 114 111 133 174 209 203 194 194 204 208 205 210 226 230 223 251 252 236 232 215 213 230 195 206 203 202
236 227 225 166 134 123 140 135 128 124 132 129 126 122 131 132 120 105 109 137 145 139 159 187 200 209 215 224 250 279 279 284 276 240 216 204 195 194 197 200 200 217 227
181 199 194 168 151 166 164 157 149 136 129 138 146 159 152 151 137 136 136 110 158 162 145 130 86 93 100 90 140 191 197 173 109 111 149 164 199 213 217 217 217 221 236
200 199 185 175 178 181 179 171 167 173 156 133 147 157 156 154 155 176 166 114 89 144 129 139 141 169 193 175 171 169 149 138 111 105 103 117 154 204 214 219 221 210 216
207 190 188 188 192 191 189 182 180 190 196 127 170 169 159 162 168 176 192 218 217 188 166 164 159 168 174 151 146 131 125 113 101 97 60 288 264 251 253 263 257 252 244
192 192 191 191 193 200 186 174 181 193 187 168 164 165 168 170 167 184 198 187 176 159 158 156 158 169 186 174 167 251 256 195 120 100 78 81 295 295 314 318 311 317 287
176 176 177 181 187 176 175 168 165 187 199 163 155 158 165 165 157 168 167 151 154 164 146 140 142 156 182 240 271 285 108 6 312 306 301 274 336 326 327 336 312 294 286
152 147 155 162 163 154 151 161 163 134 132 131 126 126 132 131 162 190 212 172 152 157 163 161 102 70 61 39 349 347 355 18 34 56 86 57 13 336 334 321 318 306 237
139 133 128 129 131 129 127 121 117 115 120 118 118 118 114 112 112 114 116 117 114 101 92 80 76 70 64 54 49 47 51 57 28 314 317 349 348 333 335 352 334 306 299
116 114 115 115 117 118 117 112 113 111 107 109 113 115 114 116 114 112 109 107 99 89 83 79 72 74 69 63 50 43 32 21 47 54 52 40 355 337 334 346 337 341 319
113 112 110 109 108 108 111 109 101 94 94 95 99 101 109 113 113 113 108 100 94 97 102 114 120 102 77 87 69 49 35 26 65 41 359 341 350 346 346 10 13 341 310
105 104 99 96 96 97 97 94 88 85 83 87 92 98 106 110 110 112 113 107 103 90 81 83 81 73 81 99 292 280 310 322 327 345 330 348 342 339 341 359 357 333 319
101 98 97 92 91 90 88 80 71 74 81 82 91 101 109 113 114 112 111 117 121 98 53 72 117 180 255 279 281 296 317 298 324 294 1 341 329 337 351 355 350 350 351
98 92 90 94 91 90 93 82 69 71 87 89 90 95 103 112 118 114 109 114 115 98 47 23 17 350 306 312 314 351 40 19 34 34 1 337 344 339 336 345 334 351 1
115 109 118 112 108 102 105 89 66 93 119 109 105 115 124 125 123 125 123 130 160 140 132 71 357 355 17 25 20 98 65 356 177 268 308 321 336 333 343 333 319 324 340
151 128 124 123 141 149 175 183 160 97 136 93 27 166 137 121 137 132 142 202 235 239 239 205 52 33 20 345 343 247 86 328 266 289 314 315 300 315 331 317 310 314 340
159 148 145 162 194 224 219 206 194 189 192 167 64 140 137 125 156 189 202 242 283 256 309 177 177 328 344 338 20 8 320 315 285 300 317 343 324 282 339 316 310 349 333
153 177 184 207 227 252 231 189 158 156 203 158 127 123 158 167 255 216 185 222 250 270 346 84 63 205 259 282 293 303 288 288 295 301 308 320 308 236 317 312 339 338 331
181 287 229 237 212 197 210 208 145 153 168 180 188 157 162 202 232 237 249 251 264 210 156 214 272 277 292 290 277 278 296 295 298 299 306 318 278 253 171 333 322 309 312
355 85 227 226 231 205 227 218 197 189 195 200 204 227 232 244 244 261 245 268 169 206 202 264 272 304 342 54 21 332 306 303 308 316 323 327 174 160 29 318 299 293 62
248 327 247 218 291 245 241 219 221 198 205 228 214 231 237 249 272 249 238 269 196 246 239 266 299 339 2 8 9 10 1 353 0 11 354 338 182 132 53 7 4 73 20